ランキン彗星

P/2021 R5 ( Rankin )

English version
Home page
Updated on March 27, 2022

---------------------------------------------------------------------

・ プロフィール

発見日 2021年9月9日
発見光度 19.3等
発見者 David Rankin (Mt. Lemmon)

・ 写真集

・ 軌道要素

Epoch 2022 Jan. 21.0 TT = JDT 2459600.5
T 2022 Jan. 12.13588 TT                                 Rudenko
q   3.3226633            (2000.0)            P               Q
n   0.09384655     Peri.  167.36754     +0.88708331     -0.45319027
a   4.7957569      Node   219.95948     +0.41074281     +0.86169360
e   0.3071660      Incl.    7.85376     +0.21065028     +0.22826021
P  10.5
From 224 observations 2021 June 22-2022 Jan. 28, mean residual 0".5.

・ 光度変化

        m1 = 6.0 + 5 logΔ + 20.0 log r

---------------------------------------------------------------------

軌道要素はM.P.E.C. 2022-C56に掲載されたものです。
光度グラフはComet for Windowsで作成したものです。

---------------------------------------------------------------------

Copyright(C) Seiichi Yoshida (comet@aerith.net). All rights reserved.